Погода в Петрушиной Горе

Россия / Санкт-Петербург и Ленинградская область     58°49′48″N   30°16′13″E
темп.,
°C
ветер,
м/с
пор.,
м/с
влажн.,
%
обл.,
%
осадки,
мм/ч
давл.,
гПа
погр.,
м
27 июля, вт
вт2700:00+17ю22660 0.0 102015
03:00+15ююв11725 0.0 102111
06:00+16ю12755 0.0 102020
09:00+22юв22545 0.0 1020322
12:00+27юв234083 0.0 10191595
15:00+28юв3335100 0.0 10171917
18:00+27вюв2343100 0.0 10161260
21:00+21вюв2262100 0.0 101527
28 июля, ср
ср2800:00+19вюв2559100 0.0 101487
03:00+18юв2372100 0.0 101358
06:00+17ююв2587100 0.1 1012129
09:00+19юв2589100 0.9 1011224
12:00+18юв3794100 0.1 1011381
15:00+21ююв3685100 0.4 1010617
18:00+23ю347065 0.4 1008895
21:00+19ю239710 2.6 100771
29 июля, чт
чт2900:00+17ююз22976 0.2 100733
03:00+16зюз27985 0.2 1006155
06:00+16зюз2897100 0.0 1006199
09:00+19зюз4785100 0.0 1005536
12:00+24зюз475367 0.0 10051414
15:00+26з5839100 0.4 10032517
18:00+26зсз484598 0.0 10032051
21:00+22зюз385713 0.0 1003419
30 июля, пт
пт3000:00+16юз28825 0.0 1004174
03:00+15юз299157 0.0 1004197
06:00+15юз310935 0.0 1004291
09:00+20юз5959100 0.0 10041049
12:00+24зюз5103886 0.0 10032243
15:00+19ю376362 0.0 1002742
18:00+18з3981100 1.0 1002641
21:00+15ю310890 1.1 1000223
31 июля, сб
сб3100:00+13ю413820 0.0 1000315
03:00+16ююз5145362 0.0 998918
06:00+16ююз6146274 0.0 9971012
09:00+18юз7146678 0.0 9961243
12:00+18юз61472100 0.4 9971391
15:00+18зюз61382100 1.4 9981262
18:00+17юз51292100 1.9 999955
21:00+16зюз31094100 3.4 999473